This is the latest recevied weather packets stored in our database for station/object OK1HOL-13. If no packets are shown the sender has not sent any weather packets the latest 10 day(s).
| Time | Temp. | Humidity | Pressure | Rain* | Wind** | Luminosity | Snow |
|---|---|---|---|---|---|---|---|
| 1777823155 | 27.78° C | 15% | 1011.4 hPa | - | - | 133 W/m² | - |
| 1777822555 | 28.33° C | 14% | 1011.4 hPa | - | - | 172 W/m² | - |
| 1777821955 | 28.33° C | 14% | 1011.4 hPa | - | - | 190 W/m² | - |
| 1777821355 | 28.33° C | 14% | 1011.5 hPa | - | - | 206 W/m² | - |
| 1777820755 | 29.44° C | 13% | 1011.7 hPa | - | - | 241 W/m² | - |
| 1777820155 | 27.78° C | 14% | 1011.8 hPa | - | - | 261 W/m² | - |
| 1777819555 | 27.78° C | 15% | 1011.9 hPa | - | - | 136 W/m² | - |
| 1777818955 | 27.78° C | 15% | 1012.1 hPa | - | - | 293 W/m² | - |
| 1777818355 | 28.89° C | 15% | 1012.1 hPa | - | - | 253 W/m² | - |
| 1777817755 | 28.89° C | 15% | 1012.2 hPa | - | - | 318 W/m² | - |
| 1777817155 | 28.33° C | 15% | 1012.4 hPa | - | - | 339 W/m² | - |
| 1777816555 | 30.56° C | 15% | 1012.5 hPa | - | - | 379 W/m² | - |
| 1777815955 | 28.33° C | 17% | 1012.7 hPa | - | - | 410 W/m² | - |
| 1777815355 | 28.33° C | 18% | 1012.9 hPa | - | - | 431 W/m² | - |
| 1777814755 | 28.89° C | 17% | 1012.9 hPa | - | - | 424 W/m² | - |
| 1777814158 | 29.44° C | 17% | 1013.1 hPa | - | - | 0 W/m² | - |
| 1777813553 | 29.44° C | 16% | 1013.3 hPa | - | - | 431 W/m² | - |
| 1777812954 | 29.44° C | 15% | 1013.4 hPa | - | - | 431 W/m² | - |
| 1777812353 | 28.33° C | 16% | 1013.7 hPa | - | - | 431 W/m² | - |
| 1777811754 | 28.33° C | 15% | 1013.8 hPa | - | - | 431 W/m² | - |
| 1777811154 | 28.33° C | 15% | 1013.9 hPa | - | - | 431 W/m² | - |
| 1777810554 | 28.33° C | 16% | 1014 hPa | - | - | 431 W/m² | - |
| 1777809953 | 28.89° C | 17% | 1014 hPa | - | - | 431 W/m² | - |
| 1777809354 | 28.89° C | 17% | 1014.2 hPa | - | - | 431 W/m² | - |
| 1777808757 | 27.22° C | 18% | 1014.4 hPa | - | - | 431 W/m² | - |
* Rain since midnight (hover to see other rain measurements)
** Current wind speed in m/s (hover to see current wind gust speed)